Weather reports worldwide

Advertisment
Schleswig-Jagel, Germany (10037): temperature & dewpoint: 07.07.2020 07:00:00 - 13.07.2020 07:00:00 (CEST)Schleswig-Jagel, Germany (10037): wind speed & gusts: 07.07.2020 07:00:00 - 13.07.2020 07:00:00 (CEST)Schleswig-Jagel, Germany (10037): wind direction: 07.07.2020 07:00:00 - 13.07.2020 07:00:00 (CEST)Schleswig-Jagel, Germany (10037): reduced air pressure: 07.07.2020 07:00:00 - 13.07.2020 07:00:00 (CEST)Schleswig-Jagel, Germany (10037): visibility: 07.07.2020 07:00:00 - 13.07.2020 07:00:00 (CEST)
Date & Time tt [°C] td [°C] ff [km/h] ff [kn] fx [km/h] fx [kn] dd ppp [hPa] vv [km]
13.07.2020 07:00:00 - - - - - - - - -
13.07.2020 06:00:00 9,3 8,7 7 4 - - S 1025,0 15
13.07.2020 05:00:00 9,5 8,9 7 4 - - SSW 1025,0 4,0
13.07.2020 04:00:00 9,3 8,7 7 4 - - SW 1025,4 4,4
13.07.2020 03:00:00 9,2 8,4 7 4 - - SW 1025,8 3,8
13.07.2020 02:00:00 9,6 8,7 7 4 - - SW 1026,0 4,8
13.07.2020 01:00:00 10,1 9,0 7 4 - - SW 1026,2 5
13.07.2020 00:00:00 11,1 9,5 7 4 - - WSW 1026,5 5
12.07.2020 23:00:00 12,2 9,9 7 4 - - W 1026,8 5
12.07.2020 22:00:00 13,8 10,6 14 8 - - W 1026,9 5
12.07.2020 21:00:00 15,8 10,4 18 10 - - W 1026,6 5
12.07.2020 20:00:00 16,9 9,5 22 12 - - W 1026,6 6
12.07.2020 19:00:00 17,8 7,9 25 14 - - W 1026,8 6
12.07.2020 18:00:00 18,4 8,3 25 14 - - W 1026,8 6
12.07.2020 17:00:00 17,5 7,3 25 14 - - W 1027,1 6
12.07.2020 16:00:00 17,3 8,1 29 16 - - WNW 1027,3 6
12.07.2020 15:00:00 17,2 7,4 25 14 - - WNW 1027,3 6
12.07.2020 14:00:00 18,1 7,5 25 14 - - WNW 1027,1 6
12.07.2020 13:00:00 17,3 7,7 25 14 - - WNW 1027,0 6
12.07.2020 12:00:00 16,9 7,7 25 14 - - WNW 1027,0 6
12.07.2020 11:00:00 15,9 7,6 29 16 - - WNW 1026,9 6
12.07.2020 10:00:00 15,2 7,5 25 14 - - NW 1026,7 6
12.07.2020 09:00:00 15,3 9,2 22 12 - - WNW 1026,3 6
12.07.2020 08:00:00 13,4 10,1 11 6 - - W 1025,9 5
12.07.2020 07:00:00 10,7 9,5 7 4 - - WSW 1025,5 4,8
12.07.2020 06:00:00 8,8 7,8 7 4 - - WSW 1025,2 4,8
12.07.2020 05:00:00 9,0 8,1 11 6 - - SW 1024,9 4,8
12.07.2020 04:00:00 8,4 7,5 11 6 - - SW 1024,9 5
12.07.2020 03:00:00 8,3 7,4 11 6 - - SW 1024,9 5
12.07.2020 02:00:00 8,6 7,5 7 4 - - WSW 1025,0 4,9
12.07.2020 01:00:00 9,9 8,4 7 4 - - WSW 1024,8 5
12.07.2020 00:00:00 10,7 8,9 7 4 - - WSW 1024,8 5
11.07.2020 23:00:00 11,8 9,1 7 4 - - W 1024,6 5
11.07.2020 22:00:00 11,9 8,5 11 6 - - W 1024,3 5
11.07.2020 21:00:00 14,6 8,3 18 10 - - W 1023,9 6
11.07.2020 20:00:00 15,7 8,2 22 12 - - W 1023,6 6
11.07.2020 19:00:00 16,1 8,0 32 18 - - W 1023,2 6
11.07.2020 18:00:00 17,3 7,5 29 16 - - WNW 1022,9 6
11.07.2020 17:00:00 17,2 8,0 29 16 - - W 1022,7 6
11.07.2020 16:00:00 17,4 8,3 29 16 47 25 W 1022,4 6
11.07.2020 15:00:00 17,3 7,4 32 18 47 25 WNW 1022,1 6
11.07.2020 14:00:00 16,4 8,5 29 16 - - WNW 1021,8 6
11.07.2020 13:00:00 15,8 9,3 25 14 50 27 WNW 1021,4 5
11.07.2020 12:00:00 16,1 10,8 25 14 - - W 1020,9 5
11.07.2020 11:00:00 15,9 8,6 29 16 - - W 1020,5 6
11.07.2020 10:00:00 14,5 7,3 25 14 - - WNW 1020,1 6
11.07.2020 09:00:00 13,7 8,4 22 12 - - W 1019,7 6
11.07.2020 08:00:00 13,8 9,3 14 8 - - W 1019,1 6
11.07.2020 07:00:00 11,9 9,5 11 6 - - W 1018,8 5
11.07.2020 06:00:00 9,7 8,3 7 4 - - W 1018,3 5
11.07.2020 05:00:00 9,2 7,8 11 6 - - WSW 1017,8 5
11.07.2020 04:00:00 8,9 7,7 14 8 - - WSW 1017,5 5
11.07.2020 03:00:00 8,8 7,3 11 6 - - W 1017,1 5
11.07.2020 02:00:00 9,4 7,0 14 8 - - WSW 1016,8 5
11.07.2020 01:00:00 9,3 7,0 14 8 - - W 1016,5 5
11.07.2020 00:00:00 9,5 7,1 14 8 - - W 1016,0 5
10.07.2020 23:00:00 10,3 7,9 14 8 - - W 1015,5 5
10.07.2020 22:00:00 11,6 8,6 14 8 - - W 1014,8 6
10.07.2020 21:00:00 13,3 7,9 18 10 - - WNW 1014,2 6
10.07.2020 20:00:00 14,1 7,2 29 16 - - WNW 1013,7 6
10.07.2020 19:00:00 14,8 8,4 29 16 - - WNW 1013,3 6
10.07.2020 18:00:00 16,3 8,4 32 18 - - WNW 1012,2 6
10.07.2020 17:00:00 14,1 10,5 7 4 - - WSW 1011,7 6
10.07.2020 16:00:00 15,0 9,3 11 6 - - W 1011,0 5
10.07.2020 15:00:00 12,6 7,8 7 4 - - NNW 1010,4 5
10.07.2020 14:00:00 11,6 9,4 18 10 - - NNW 1010,0 4,5
10.07.2020 13:00:00 12,6 10,9 18 10 - - NNW 1009,2 2,4
10.07.2020 12:00:00 13,0 10,6 14 8 - - NNE 1008,5 15
10.07.2020 11:00:00 12,6 11,3 11 6 - - NNE 1008,1 7
10.07.2020 10:00:00 12,1 10,7 14 8 - - NE 1008,2 6
10.07.2020 09:00:00 12,0 11,1 14 8 - - NE 1008,0 8
10.07.2020 08:00:00 11,4 10,5 11 6 - - NE 1008,1 8
10.07.2020 07:00:00 11,5 10,8 7 4 - - NNE 1008,8 5
10.07.2020 06:00:00 11,3 10,5 4 2 - - NE 1009,3 75
10.07.2020 05:00:00 11,3 10,2 4 2 - - NE 1009,5 3,9
10.07.2020 04:00:00 11,5 10,4 4 2 - - SE 1009,9 6
10.07.2020 03:00:00 11,4 10,1 0 0 - - N 1010,5 6
10.07.2020 02:00:00 11,5 9,9 4 2 - - E 1010,8 6
10.07.2020 01:00:00 11,5 9,9 4 2 - - NNE 1011,3 5
10.07.2020 00:00:00 11,9 10,0 4 2 - - WSW 1011,6 5
09.07.2020 23:00:00 12,1 9,7 4 2 - - SSW 1011,6 5
09.07.2020 22:00:00 13,3 9,9 7 4 - - S 1011,8 6
09.07.2020 21:00:00 14,5 9,1 4 2 - - SE 1011,5 6
09.07.2020 20:00:00 14,6 8,8 7 4 - - E 1011,3 6
09.07.2020 19:00:00 14,6 9,0 7 4 - - ENE 1011,5 6
09.07.2020 18:00:00 14,6 9,0 11 6 - - NE 1011,6 6
09.07.2020 17:00:00 15,0 9,6 14 8 - - ENE 1011,8 30
09.07.2020 16:00:00 14,6 8,9 11 6 - - NE 1012,0 30
09.07.2020 15:00:00 13,9 9,6 11 6 - - E 1012,2 18
09.07.2020 14:00:00 12,7 9,5 14 8 - - E 1012,3 10
09.07.2020 13:00:00 12,2 9,5 11 6 - - E 1013,0 20
09.07.2020 12:00:00 12,2 9,5 7 4 - - SE 1013,2 20
09.07.2020 11:00:00 13,0 9,9 7 4 - - ESE 1013,5 20
09.07.2020 10:00:00 13,5 9,0 11 6 - - SE 1013,7 20
09.07.2020 09:00:00 12,8 9,7 7 4 - - SE 1014,1 20
09.07.2020 08:00:00 11,1 9,2 4 2 - - N 1014,6 20
09.07.2020 07:00:00 9,5 8,1 4 2 - - SE 1014,8 20
09.07.2020 06:00:00 8,7 7,6 4 2 - - SE 1015,0 20
09.07.2020 05:00:00 8,0 7,1 4 2 - - SE 1015,1 20
09.07.2020 04:00:00 8,5 7,4 4 2 - - S 1015,3 5
09.07.2020 03:00:00 8,6 7,3 4 2 - - SW 1015,6 4,9
09.07.2020 02:00:00 8,7 7,2 4 2 - - SW 1015,5 5
09.07.2020 01:00:00 9,4 7,2 11 6 - - WSW 1015,9 5
09.07.2020 00:00:00 10,2 7,5 7 4 - - WSW 1015,9 5
08.07.2020 23:00:00 10,8 7,5 7 4 - - W 1015,9 5
08.07.2020 22:00:00 11,8 7,5 11 6 - - W 1015,8 5
08.07.2020 21:00:00 13,8 7,4 18 10 - - W 1015,4 6
08.07.2020 20:00:00 15,1 6,6 22 12 - - WNW 1015,0 6
08.07.2020 19:00:00 15,5 7,2 25 14 - - W 1014,8 6
08.07.2020 18:00:00 16,1 7,0 25 14 - - WNW 1014,8 7
08.07.2020 17:00:00 16,8 6,8 29 16 - - W 1014,6 35
08.07.2020 16:00:00 16,5 6,5 29 16 - - WNW 1014,6 35
08.07.2020 15:00:00 15,9 6,8 25 14 - - WNW 1014,6 35
08.07.2020 14:00:00 16,2 7,1 25 14 - - WNW 1014,2 35
08.07.2020 13:00:00 15,2 7,0 25 14 - - NW 1013,9 25
08.07.2020 12:00:00 15,3 8,2 25 14 - - NW 1013,7 25
08.07.2020 11:00:00 15,4 7,2 24 13 - - WNW 1013,3 10
08.07.2020 10:00:00 13,8 8,0 18 10 - - WNW 1013,1 25
08.07.2020 09:00:00 13,7 8,0 22 12 - - W 1013,0 25
08.07.2020 08:00:00 13,2 9,7 14 8 - - WSW 1012,9 20
08.07.2020 07:00:00 11,7 9,3 11 6 - - WSW 1012,7 20
08.07.2020 06:00:00 10,1 8,1 11 6 - - WSW 1013,0 20
08.07.2020 05:00:00 10,7 9,5 11 6 - - WSW 1013,1 18
08.07.2020 04:00:00 10,7 9,3 11 6 - - WSW 1013,3 5
08.07.2020 03:00:00 10,8 9,6 7 4 - - SW 1013,7 5
08.07.2020 02:00:00 10,9 9,6 11 6 - - WSW 1013,8 4,9
08.07.2020 01:00:00 10,7 9,4 14 8 - - SW 1014,0 5
08.07.2020 00:00:00 11,0 9,3 14 8 - - WSW 1014,1 5
07.07.2020 23:00:00 10,9 9,0 11 6 - - WSW 1014,1 5
07.07.2020 22:00:00 11,9 9,3 14 8 - - W 1014,0 5
07.07.2020 21:00:00 12,5 10,0 11 6 - - WSW 1014,0 5
07.07.2020 20:00:00 12,7 9,9 14 8 - - W 1014,3 5
07.07.2020 19:00:00 12,6 9,7 18 10 - - W 1014,5 4,8
07.07.2020 18:00:00 12,9 8,5 25 14 50 27 NW 1014,8 5
07.07.2020 17:00:00 15,5 8,2 29 16 - - W 1014,4 25
07.07.2020 16:00:00 13,9 11,6 18 10 - - SW 1014,7 25
07.07.2020 15:00:00 13,7 11,5 25 14 47 25 SW 1014,9 25
07.07.2020 14:00:00 15,0 9,5 36 19 - - SW 1015,0 25
07.07.2020 13:00:00 16,1 9,7 32 18 61 33 SW 1015,1 25
07.07.2020 12:00:00 16,9 7,8 29 16 - - SW 1015,6 30
07.07.2020 11:00:00 15,5 7,8 25 14 - - WSW 1016,4 30
07.07.2020 10:00:00 15,5 8,6 25 14 - - WSW 1016,4 30
07.07.2020 09:00:00 14,9 8,4 22 12 - - W 1016,6 30
07.07.2020 08:00:00 13,4 8,7 14 8 - - WSW 1016,6 30
07.07.2020 07:00:00 11,5 8,0 14 8 - - WSW 1016,7 25

tt = temperature
td = dewpoint
ff = wind speed
fx = gusts
dd = wind direction
ppp = reduced air pressure
vv = visibility

Next stations